Location: ?????
(31.8092°N, 35.2590°E)
Time: 01:55:29
(UTC+00:00)

SL-16 R/B - Pass Details

Date: 20 June 2021
Orbit: 842 x 846 km, 71.0° (Epoch: 04 August)

Event Time Altitude Azimuth Distance (km) Brightness Sun altitude
Rises 17:13:27 0° 198° (SSW) 3,382 5.2 -5.6°
Reaches altitude 10° 17:15:53 10° 198° (SSW) 2,450 4.5 -6.0°
Maximum altitude 17:21:31 89° 113° (ESE) 847 2.2 -7.0°
Drops below altitude 10° 17:27:11 10° 20° (NNE) 2,465 4.8 -8.0°
Sets 17:29:38 0° 21° (NNE) 3,404 5.5 -8.5°
